TimeEDT,TemperatureF,Dew PointF,Humidity,Sea Level PressureIn,VisibilityMPH,Wind Direction,Wind SpeedMPH,Gust SpeedMPH,PrecipitationIn,Events,Conditions,WindDirDegrees,DateUTC
12:54 AM,25.0,21.9,88,30.33,10.0,Calm,Calm,-,N/A,,Clear,0,2013-03-10 05:54:00
1:54 AM,21.9,19.0,89,30.32,10.0,Calm,Calm,-,N/A,,Clear,0,2013-03-10 06:54:00
3:54 AM,23.0,19.9,88,30.32,5.0,Calm,Calm,-,N/A,,Clear,0,2013-03-10 07:54:00
4:40 AM,21.2,19.4,93,30.32,0.8,Calm,Calm,-,0.00,,Mist,0,2013-03-10 08:40:00
4:46 AM,21.2,19.4,93,30.33,1.2,Calm,Calm,-,0.00,,Partly Cloudy,0,2013-03-10 08:46:00
4:54 AM,19.9,17.1,89,30.34,2.5,Calm,Calm,-,0.00,,Partly Cloudy,0,2013-03-10 08:54:00
5:40 AM,21.2,17.6,86,30.33,1.5,Calm,Calm,-,N/A,,Clear,0,2013-03-10 09:40:00
5:54 AM,21.0,18.0,88,30.34,1.5,Calm,Calm,-,N/A,,Clear,0,2013-03-10 09:54:00
5:58 AM,21.2,17.6,86,30.33,0.8,Calm,Calm,-,N/A,,Mist,0,2013-03-10 09:58:00
6:07 AM,19.4,15.8,86,30.33,0.2,Calm,Calm,-,N/A,Fog,Light Freezing Fog,0,2013-03-10 10:07:00
6:29 AM,21.2,17.6,86,30.33,1.5,Calm,Calm,-,N/A,,Partly Cloudy,0,2013-03-10 10:29:00
6:31 AM,21.2,17.6,86,30.33,3.0,Calm,Calm,-,N/A,,Partly Cloudy,0,2013-03-10 10:31:00
6:54 AM,21.0,17.1,85,30.35,10.0,Calm,Calm,-,N/A,,Clear,0,2013-03-10 10:54:00
8:54 AM,25.0,24.1,96,30.37,10.0,Calm,Calm,-,N/A,,Clear,0,2013-03-10 12:54:00
9:54 AM,30.0,24.1,79,30.38,10.0,ESE,3.5,-,N/A,,Clear,110,2013-03-10 13:54:00
10:54 AM,39.0,27.0,62,30.37,10.0,Calm,Calm,-,N/A,,Clear,0,2013-03-10 14:54:00
11:54 AM,43.0,26.1,51,30.35,10.0,Calm,Calm,-,N/A,,Clear,0,2013-03-10 15:54:00
12:54 PM,45.0,26.1,48,30.34,10.0,Calm,Calm,-,N/A,,Clear,0,2013-03-10 16:54:00
1:54 PM,46.0,26.1,46,30.32,10.0,SSW,5.8,-,N/A,,Clear,210,2013-03-10 17:54:00
2:54 PM,48.0,26.1,42,30.29,10.0,South,5.8,-,N/A,,Mostly Cloudy,190,2013-03-10 18:54:00
3:54 PM,48.9,27.0,43,30.27,10.0,South,8.1,-,N/A,,Clear,170,2013-03-10 19:54:00
4:54 PM,48.9,28.9,46,30.26,10.0,SSE,9.2,-,N/A,,Clear,160,2013-03-10 20:54:00
5:54 PM,48.0,28.9,48,30.25,10.0,SSE,6.9,-,N/A,,Clear,160,2013-03-10 21:54:00
6:54 PM,46.0,30.0,54,30.27,10.0,South,8.1,-,N/A,,Clear,180,2013-03-10 22:54:00
7:54 PM,44.1,30.0,58,30.27,10.0,South,5.8,-,N/A,,Clear,190,2013-03-10 23:54:00
8:54 PM,41.0,32.0,70,30.27,10.0,SSW,6.9,-,N/A,,Clear,200,2013-03-11 00:54:00
10:54 PM,37.9,30.9,76,30.28,10.0,South,8.1,-,N/A,,Clear,190,2013-03-11 02:54:00
11:54 PM,37.0,30.9,79,30.28,10.0,SSW,5.8,-,N/A,,Clear,200,2013-03-11 03:54:00